カタログに戻る

ONEWEB-0386

運用中通信PO
NORAD 49312·PAYLOAD·🇬🇧 United Kingdom

打ち上げ Oct 14, 2021 から Vostochny Cosmodrome

Loading…

次のパス (今後24時間)

TLE

最新Source: CelesTrak SupGP

元期: Sep 14, 2026, 20:37 UTC

1 49312C 21090AK  26257.85954120  .00010437  00000+0  25702-1 0  2575
2 49312  87.9139 256.5458 0002253  91.6695 305.8187 13.20761917    11

AllMySatでONEWEB-0386をリアルタイム追跡

Download on the App Store